utc_time,unix_time,temp,cond,salinity,tds,chla_rfu,chla_ugl,bga_rfu,bga_ugl,odo,sat,nitrate_um,nitrogen_mg,stage,area,discharge,total_discharge
2020-04-01 00:00:02+00:00,1585699202,22.408,14004.93,8.57,9.58,,,,,7.98,96.72,,,,,,
2020-04-01 00:20:02+00:00,1585700402,22.503,14579.74,8.93,9.95,,,,,8,97.33,,,,,,
2020-04-01 00:40:02+00:00,1585701602,22.501,15128.45,9.3,10.33,,,,,7.64,93.06,,,,,,
2020-04-01 01:00:01+00:00,1585702801,22.513,15209.78,9.35,10.38,,,,,4.71,57.39,,,,,,
2020-04-01 01:20:02+00:00,1585704002,22.487,15768.54,9.73,10.77,,,,,4.05,49.5,,,,,,
2020-04-01 01:40:02+00:00,1585705202,22.386,15770.23,9.75,10.79,,,,,7.51,91.54,,,,,,
2020-04-01 02:00:01+00:00,1585706401,,,,,,,,,,,,,,,,
2020-04-01 02:20:02+00:00,1585707602,21.902,15583.23,9.74,10.77,,,,,6.03,72.8,,,,,,
2020-04-01 02:40:02+00:00,1585708802,21.794,14620.48,9.11,10.12,,,,,3.95,47.4,,,,,,
2020-04-01 03:00:01+00:00,1585710001,21.589,14366.6,8.98,9.99,,,,,5.48,65.55,,,,,,
2020-04-01 03:20:02+00:00,1585711202,21.304,13070.73,8.16,9.14,,,,,8.19,96.94,,,,,,
2020-04-01 03:40:01+00:00,1585712401,21.424,13310.45,8.3,9.29,,,,,8.46,100.43,,,,,,
2020-04-01 04:00:01+00:00,1585713601,21.13,13341.55,8.37,9.36,,,,,7.9,93.29,,,,,,
2020-04-01 04:20:02+00:00,1585714802,20.875,13818.7,8.75,9.75,,,,,8.33,98.08,,,,,,
2020-04-01 04:40:01+00:00,1585716001,20.699,13498.73,8.57,9.56,,,,,7.75,90.86,,,,,,
2020-04-01 05:00:02+00:00,1585717202,20.544,13196.7,8.39,9.38,,,,,7.38,86.22,,,,,,
2020-04-01 05:20:02+00:00,1585718402,20.338,13234.96,8.46,9.44,,,,,7.12,82.9,,,,,,
2020-04-01 05:40:01+00:00,1585719601,20.079,13208.56,8.49,9.48,,,,,7.79,90.22,,,,,,
2020-04-01 06:00:02+00:00,1585720802,19.884,13763.49,8.92,9.92,,,,,7.7,89.06,,,,,,
2020-04-01 06:20:02+00:00,1585722002,19.707,13297,8.63,9.62,,,,,7.31,84.09,,,,,,
2020-04-01 06:40:01+00:00,1585723201,19.51,13156.19,8.57,9.55,,,,,7.49,85.78,,,,,,
2020-04-01 07:00:02+00:00,1585724402,19.405,12797.78,8.34,9.31,,,,,6.05,69.08,,,,,,
2020-04-01 07:20:02+00:00,1585725602,19.3,12694.21,8.28,9.26,,,,,6.5,74.07,,,,,,
2020-04-01 07:40:01+00:00,1585726801,19.141,13228.79,8.69,9.68,,,,,7.03,79.96,,,,,,
2020-04-01 08:00:02+00:00,1585728002,18.887,11843.02,7.76,8.72,,,,,6.28,70.68,,,,,,
2020-04-01 08:20:02+00:00,1585729202,18.736,12003.07,7.9,8.86,,,,,5.74,64.52,,,,,,
2020-04-01 08:40:01+00:00,1585730401,18.584,12837.11,8.53,9.51,,,,,5.97,67.16,,,,,,
2020-04-01 09:00:02+00:00,1585731602,18.414,12444.87,8.28,9.25,,,,,5.86,65.63,,,,,,
2020-04-01 09:20:01+00:00,1585732801,18.257,12038.02,8.02,8.98,,,,,5.43,60.51,,,,,,
2020-04-01 09:40:02+00:00,1585734002,18.127,12003.97,8.02,8.98,,,,,4.52,50.25,,,,,,
2020-04-01 10:00:02+00:00,1585735202,17.957,11571.33,7.74,8.69,,,,,6.63,73.25,,,,,,
2020-04-01 10:20:01+00:00,1585736401,17.668,12074.14,8.16,9.13,,,,,7.34,80.81,,,,,,
2020-04-01 10:40:02+00:00,1585737602,17.662,11875.25,8.02,8.98,,,,,7.49,82.4,,,,,,
2020-04-01 11:00:02+00:00,1585738802,17.641,12351.43,8.37,9.34,,,,,4.84,53.35,,,,,,
2020-04-01 11:20:01+00:00,1585740001,17.38,11315.17,7.66,8.61,,,,,5.9,64.43,,,,,,
2020-04-01 11:40:02+00:00,1585741202,17.272,11511.41,7.83,8.78,,,,,5.33,58.13,,,,,,
2020-04-01 12:00:02+00:00,1585742402,17.099,11915.65,8.16,9.12,,,,,4.85,52.77,,,,,,
2020-04-01 12:20:01+00:00,1585743601,16.931,12478.23,8.61,9.59,,,,,6.91,75.22,,,,,,
2020-04-01 12:40:02+00:00,1585744802,16.783,12014.18,8.29,9.26,,,,,6.22,67.35,,,,,,
2020-04-01 13:00:02+00:00,1585746002,16.828,12569.98,8.7,9.68,,,,,4.02,43.66,,,,,,
2020-04-01 13:20:01+00:00,1585747201,16.79,12326.04,8.53,9.5,,,,,3.35,36.32,,,,,,
2020-04-01 13:40:02+00:00,1585748402,16.645,12469.13,8.66,9.64,,,,,4.96,53.66,,,,,,
2020-04-01 14:00:02+00:00,1585749602,16.453,11714.65,8.14,9.1,,,,,6.85,73.58,,,,,,
2020-04-01 14:20:02+00:00,1585750802,16.467,12101.4,8.43,9.4,,,,,5.05,54.38,,,,,,
2020-04-01 14:40:02+00:00,1585752002,16.452,12035.28,8.38,9.35,,,,,5.77,62.08,,,,,,
2020-04-01 15:00:01+00:00,1585753201,16.421,13341.1,9.37,10.37,,,,,5.32,57.55,,,,,,
2020-04-01 15:20:02+00:00,1585754402,16.344,14369.06,10.18,11.19,,,,,3.96,42.93,,,,,,
2020-04-01 15:40:02+00:00,1585755602,16.343,12779.33,8.96,9.95,,,,,4.75,51.15,,,,,,
2020-04-01 16:00:02+00:00,1585756802,16.373,12621.9,8.84,9.82,,,,,5.33,57.41,,,,,,
2020-04-01 16:20:02+00:00,1585758002,16.297,12676.45,8.9,9.88,,,,,4.89,52.67,,,,,,
2020-04-01 16:40:01+00:00,1585759201,16.254,13390.02,9.45,10.45,,,,,4.13,44.52,,,,,,
2020-04-01 17:00:02+00:00,1585760402,16.255,12558.51,8.82,9.8,,,,,4.69,50.45,,,,,,
2020-04-01 17:20:01+00:00,1585761601,16.736,11939.96,8.25,9.22,,,,,8.23,89.01,,,,,,
2020-04-01 17:40:01+00:00,1585762801,17.099,12861.36,8.86,9.85,,,,,8.83,96.62,,,,,,
2020-04-01 18:00:02+00:00,1585764002,17.433,17563.36,12.32,13.34,,,,,7.88,88.59,,,,,,
2020-04-01 18:20:01+00:00,1585765201,18.012,13720.28,9.29,10.29,,,,,10.14,113.3,,,,,,
2020-04-01 18:40:02+00:00,1585766402,18.497,12198.65,8.09,9.05,,,,,10.68,119.61,,,,,,
2020-04-01 19:00:02+00:00,1585767602,19.15,13105.01,8.6,9.59,,,,,10.01,113.89,,,,,,
2020-04-01 19:20:01+00:00,1585768801,19.65,13645.46,8.88,9.88,,,,,10.19,117.31,,,,,,
2020-04-01 19:40:01+00:00,1585770001,20.074,13671.15,8.81,9.81,,,,,10.89,126.27,,,,,,
2020-04-01 20:00:02+00:00,1585771202,20.427,13397,8.55,9.54,,,,,11.78,137.36,,,,,,
2020-04-01 20:20:01+00:00,1585772401,20.718,11884.57,7.46,8.41,,,,,11.98,139.6,,,,,,
2020-04-01 20:40:02+00:00,1585773602,20.977,10889.18,6.75,7.67,,,,,12.5,145.82,,,,,,
2020-04-01 21:00:02+00:00,1585774802,21.026,10472.67,6.46,7.37,,,,,10.85,126.49,,,,,,
2020-04-01 21:20:01+00:00,1585776001,21.251,11044.64,6.81,7.73,,,,,10.28,120.59,,,,,,
2020-04-01 21:40:01+00:00,1585777201,21.556,12391.48,7.66,8.62,,,,,9.43,111.78,,,,,,
2020-04-01 22:00:02+00:00,1585778402,21.879,11942.09,7.3,8.25,,,,,13.1,155.93,,,,,,
2020-04-01 22:20:01+00:00,1585779601,21.96,14688.13,9.12,10.14,,,,,9.71,116.95,,,,,,
2020-04-01 22:40:02+00:00,1585780802,,,,,,,,,,,,,,,,
2020-04-01 23:00:02+00:00,1585782002,22.13,13724.44,8.44,9.44,,,,,10.53,126.75,,,,,,
2020-04-01 23:20:01+00:00,1585783201,22.159,14502.14,8.95,9.97,,,,,8.29,100.21,,,,,,
2020-04-01 23:40:02+00:00,1585784402,22.149,13877.2,8.54,9.54,,,,,9.14,110.11,,,,,,
2020-04-02 00:00:02+00:00,1585785602,22.039,13429.14,8.26,9.25,,,,,10.3,123.63,,,,,,
2020-04-02 00:20:02+00:00,1585786802,21.923,14635.33,9.09,10.11,,,,,10.44,125.68,,,,,,
2020-04-02 00:40:02+00:00,1585788002,21.666,14267.63,8.9,9.9,,,,,11.95,142.99,,,,,,
2020-04-02 01:00:01+00:00,1585789201,21.57,12579.72,7.78,8.75,,,,,9.41,111.65,,,,,,
2020-04-02 01:20:02+00:00,1585790402,21.307,12555.8,7.81,8.78,,,,,9.85,116.33,,,,,,
2020-04-02 01:40:02+00:00,1585791602,21.017,12429.86,7.78,8.74,,,,,10,117.45,,,,,,
2020-04-02 02:00:01+00:00,1585792801,20.668,12362.85,7.8,8.76,,,,,10.24,119.5,,,,,,
2020-04-02 02:20:02+00:00,1585794002,20.324,11903.98,7.54,8.5,,,,,9.9,114.53,,,,,,
2020-04-02 02:40:02+00:00,1585795202,20.061,11692.14,7.44,8.39,,,,,9.4,108.14,,,,,,
2020-04-02 03:00:01+00:00,1585796401,19.763,12872.34,8.32,9.3,,,,,9.6,110.35,,,,,,
2020-04-02 03:20:02+00:00,1585797602,19.423,14111.33,9.26,10.27,,,,,8.65,99.34,,,,,,
2020-04-02 03:40:01+00:00,1585798801,18.943,14867.19,9.91,10.93,,,,,8.35,95.41,,,,,,
2020-04-02 04:00:01+00:00,1585800001,18.603,13670.03,9.12,10.12,,,,,9.57,108.02,,,,,,
2020-04-02 04:20:02+00:00,1585801202,18.648,14380.53,9.63,10.64,,,,,8.38,95,,,,,,
2020-04-02 04:40:01+00:00,1585802401,18.584,15807.36,10.69,11.71,,,,,6.73,76.72,,,,,,
2020-04-02 05:00:01+00:00,1585803601,18.397,15261.57,10.33,11.35,,,,,5.86,66.41,,,,,,
2020-04-02 05:20:02+00:00,1585804802,18.153,14953.44,10.17,11.18,,,,,7.03,79.18,,,,,,
2020-04-02 05:40:01+00:00,1585806001,18.185,15351.66,10.45,11.47,,,,,6.32,71.31,,,,,,
2020-04-02 06:00:02+00:00,1585807202,18.079,15606.41,10.67,11.69,,,,,5.11,57.65,,,,,,
2020-04-02 06:20:02+00:00,1585808402,17.863,15153.62,10.39,11.4,,,,,3.81,42.73,,,,,,
2020-04-02 06:40:01+00:00,1585809601,17.702,14786.76,10.15,11.17,,,,,5.32,59.33,,,,,,
2020-04-02 07:00:02+00:00,1585810802,17.675,14735.77,10.12,11.14,,,,,5.74,63.99,,,,,,
2020-04-02 07:20:01+00:00,1585812001,17.518,15097.35,10.43,11.45,,,,,5.02,55.88,,,,,,
2020-04-02 07:40:01+00:00,1585813201,17.264,14401.97,9.97,10.98,,,,,2.99,33.05,,,,,,
2020-04-02 08:00:02+00:00,1585814402,17.2,14597.68,10.14,11.15,,,,,4.19,46.25,,,,,,
2020-04-02 08:20:01+00:00,1585815601,16.847,15149.83,10.65,11.66,,,,,3.76,41.33,,,,,,
2020-04-02 08:40:02+00:00,1585816802,16.651,15219.54,10.75,11.77,,,,,2.46,26.97,,,,,,
2020-04-02 09:00:02+00:00,1585818002,16.357,14646.27,10.39,11.4,,,,,5.02,54.55,,,,,,
2020-04-02 09:20:01+00:00,1585819201,15.91,15049.79,10.82,11.84,,,,,3.18,34.35,,,,,,
2020-04-02 09:40:02+00:00,1585820402,15.936,15975.5,11.53,12.56,,,,,1.7,18.49,,,,,,
2020-04-02 10:00:02+00:00,1585821602,15.944,16621.11,12.04,13.06,,,,,1.56,16.97,,,,,,
2020-04-02 10:20:02+00:00,1585822802,15.864,15647.01,11.3,12.32,,,,,2.2,23.77,,,,,,
2020-04-02 10:40:02+00:00,1585824002,15.881,15352.19,11.06,12.08,,,,,1.83,19.77,,,,,,
2020-04-02 11:00:01+00:00,1585825201,16.349,15392.55,10.96,11.99,,,,,6.16,67.16,,,,,,
2020-04-02 11:20:02+00:00,1585826402,15.897,15990.67,11.56,12.58,,,,,6.54,70.91,,,,,,
2020-04-02 11:40:01+00:00,1585827601,13.214,13314.35,10.15,11.17,,,,,6.58,66.86,,,,,,
2020-04-02 12:00:01+00:00,1585828801,13.718,13164.6,9.9,10.91,,,,,5.03,51.62,,,,,,
2020-04-02 12:20:02+00:00,1585830002,14.988,13944.78,10.19,11.21,,,,,3.87,40.84,,,,,,
2020-04-02 12:40:01+00:00,1585831201,15.225,14277.75,10.4,11.41,,,,,4.22,44.83,,,,,,
2020-04-02 13:00:02+00:00,1585832402,15.435,15153.83,11.03,12.05,,,,,3.96,42.41,,,,,,
2020-04-02 13:20:02+00:00,1585833602,15.027,15565.16,11.47,12.5,,,,,3.65,38.86,,,,,,
2020-04-02 13:40:01+00:00,1585834801,14.998,15117.53,11.12,12.15,,,,,3.34,35.5,,,,,,
2020-04-02 14:00:02+00:00,1585836002,14.832,13866.94,10.17,11.19,,,,,5.75,60.5,,,,,,
2020-04-02 14:20:02+00:00,1585837202,14.782,13700.55,10.05,11.06,,,,,4.48,47.02,,,,,,
2020-04-02 14:40:01+00:00,1585838401,14.555,13715.68,10.12,11.14,,,,,3.94,41.16,,,,,,
2020-04-02 15:00:02+00:00,1585839602,14.34,13746.87,10.2,11.22,,,,,2.19,22.85,,,,,,
2020-04-02 15:20:01+00:00,1585840801,14.07,14436.87,10.84,11.86,,,,,1.75,18.15,,,,,,
2020-04-02 15:40:01+00:00,1585842001,13.967,14765.91,11.13,12.16,,,,,1.65,17.11,,,,,,
2020-04-02 16:00:02+00:00,1585843202,14.002,14682.7,11.06,12.08,,,,,4.93,51.22,4.185,-0.82878,,,,
2020-04-02 16:20:02+00:00,1585844402,14.66,13762.48,10.13,11.15,,,,,6.86,71.91,,,,,,
2020-04-02 16:40:02+00:00,1585845602,15.002,13245.48,9.64,10.64,,,,,6.72,70.74,,,,,,
2020-04-02 17:00:01+00:00,1585846801,14.868,14289.83,10.5,11.52,,,,,4.94,52.09,,,,,,
2020-04-02 17:20:02+00:00,1585848002,14.002,12323.54,9.15,10.14,,,,,5.74,58.98,,,,,,
2020-04-02 17:40:02+00:00,1585849202,14.389,12421.37,9.13,10.13,,,,,6.19,64.11,,,,,,
2020-04-02 18:00:01+00:00,1585850401,14.786,12904.92,9.42,10.42,,,,,7.14,74.69,,,,,,
2020-04-02 18:20:02+00:00,1585851602,15.489,15475.43,11.27,12.29,,,,,7.29,78.21,,,,,,
2020-04-02 18:40:01+00:00,1585852801,15.694,14669.87,10.58,11.6,,,,,7.8,83.8,,,,,,
2020-04-02 19:00:02+00:00,1585854002,16.695,13066.1,9.1,10.09,,,,,8.25,89.56,,,,,,
2020-04-02 19:20:02+00:00,1585855202,17.52,13364.37,9.14,10.13,,,,,9.02,99.69,,,,,,
2020-04-02 19:40:01+00:00,1585856401,18.128,14594.76,9.91,10.92,,,,,9.67,108.71,4.604,-0.82291,,,,
2020-04-02 20:00:01+00:00,1585857601,18.599,12688.55,8.42,9.4,,,,,11.06,124.38,,,,,,
2020-04-02 20:20:02+00:00,1585858802,18.993,12293.09,8.06,9.03,,,,,12.19,137.88,,,,,,
2020-04-02 20:40:02+00:00,1585860002,19.347,11899,7.72,8.67,,,,,12.69,144.22,,,,,,
2020-04-02 21:00:01+00:00,1585861201,19.659,11185.82,7.16,8.1,,,,,13.09,149.13,,,,,,
2020-04-02 21:20:02+00:00,1585862402,19.921,10249.52,6.48,7.38,,,,,13.43,153.25,,,,,,
2020-04-02 21:40:01+00:00,1585863601,20.159,10395.67,6.54,7.45,,,,,13.71,157.23,,,,,,
2020-04-02 22:00:02+00:00,1585864802,20.39,9992.64,6.24,7.12,,,,,13.57,156.06,,,,,,
2020-04-02 22:20:01+00:00,1585866001,20.534,9787.34,6.08,6.96,,,,,10.67,122.9,3.756,-0.83478,,,,
2020-04-02 22:40:02+00:00,1585867202,20.56,9572.06,5.93,6.8,,,,,12.14,139.84,,,,,,
2020-04-02 23:00:01+00:00,1585868401,20.734,9624.04,5.94,6.81,,,,,8.14,94.08,,,,,,
2020-04-02 23:20:02+00:00,1585869602,20.989,10881.78,6.74,7.66,,,,,10.37,120.95,,,,,,
2020-04-02 23:40:01+00:00,1585870801,21.057,11601.77,7.21,8.16,,,,,10.64,124.6,,,,,,
2020-04-03 00:00:02+00:00,1585872002,21.19,11930.21,7.41,8.36,,,,,11.02,129.57,,,,,,
2020-04-03 00:20:01+00:00,1585873201,21.183,11325.14,7.01,7.94,,,,,6.37,74.75,,,,,,
2020-04-03 00:40:02+00:00,1585874402,21.098,11949.71,7.44,8.39,,,,,8.93,104.81,,,,,,
2020-04-03 01:00:02+00:00,1585875602,20.992,12147.84,7.59,8.55,,,,,8.06,94.51,,,,,,
2020-04-03 01:20:01+00:00,1585876801,20.756,11793.42,7.39,8.34,,,,,9.72,113.29,,,,,,
2020-04-03 01:40:02+00:00,1585878002,20.614,10991.42,6.88,7.8,,,,,8.99,104.24,,,,,,
2020-04-03 02:00:02+00:00,1585879202,20.374,11460,7.23,8.17,,,,,9.01,104.22,,,,,,
2020-04-03 02:20:02+00:00,1585880402,20.052,12020.27,7.67,8.63,,,,,9.53,109.76,,,,,,
2020-04-03 02:40:02+00:00,1585881602,19.622,12130.34,7.83,8.79,,,,,11.02,126.03,,,,,,
2020-04-03 03:00:01+00:00,1585882801,19.511,11912.23,7.69,8.65,,,,,8.68,98.94,,,,,,
2020-04-03 03:20:02+00:00,1585884002,19.305,13223.41,8.66,9.64,,,,,7.61,86.84,,,,,,
2020-04-03 03:40:01+00:00,1585885201,19.182,12750.74,8.35,9.32,,,,,7.63,86.71,,,,,,
2020-04-03 04:00:01+00:00,1585886401,18.639,13490.61,8.99,9.98,,,,,9.44,106.59,,,,,,
2020-04-03 04:20:02+00:00,1585887602,18.381,13017.37,8.7,9.69,,,,,7.8,87.43,,,,,,
2020-04-03 04:40:01+00:00,1585888801,18.491,13465.89,9,10,,,,,7.8,87.84,,,,,,
2020-04-03 05:00:02+00:00,1585890002,18.269,14038.72,9.47,10.47,,,,,7.55,84.82,,,,,,
2020-04-03 05:20:02+00:00,1585891202,17.87,13554.78,9.2,10.2,,,,,7.27,80.87,,,,,,
2020-04-03 05:40:01+00:00,1585892401,17.409,12406.11,8.46,9.43,,,,,9.15,100.43,,,,,,
2020-04-03 06:00:02+00:00,1585893602,17.332,11998.09,8.17,9.14,,,,,6.98,76.41,,,,,,
2020-04-03 06:20:01+00:00,1585894801,17.215,11711.48,7.98,8.94,,,,,6.88,75,,,,,,
2020-04-03 06:40:01+00:00,1585896001,17.066,11716.24,8.02,8.98,,,,,6.1,66.33,,,,,,
2020-04-03 07:00:02+00:00,1585897202,16.934,12320.64,8.49,9.47,,,,,3.85,41.82,,,,,,
2020-04-03 07:20:02+00:00,1585898402,16.782,12097.45,8.36,9.33,,,,,4.23,45.86,,,,,,
2020-04-03 07:40:01+00:00,1585899601,16.581,12229.63,8.5,9.47,,,,,4.67,50.42,,,,,,
2020-04-03 08:00:02+00:00,1585900802,16.353,11748.59,8.18,9.15,,,,,5.11,54.77,,,,,,
2020-04-03 08:20:01+00:00,1585902001,16.073,11549.83,8.09,9.05,,,,,5.18,55.25,,,,,,
2020-04-03 08:40:02+00:00,1585903202,15.862,11521.66,8.11,9.07,,,,,4.5,47.74,,,,,,
2020-04-03 09:00:02+00:00,1585904402,15.633,11665.28,8.27,9.23,,,,,4.5,47.53,,,,,,
2020-04-03 09:20:01+00:00,1585905601,15.346,11998.72,8.59,9.56,,,,,5.67,59.73,,,,,,
2020-04-03 09:40:02+00:00,1585906802,14.969,11820.17,8.53,9.5,,,,,5.12,53.42,,,,,,
2020-04-03 10:00:02+00:00,1585908002,14.802,11451.17,8.28,9.24,,,,,4.68,48.67,,,,,,
2020-04-03 10:20:01+00:00,1585909201,14.516,11756.79,8.58,9.56,,,,,5.47,56.54,,,,,,
2020-04-03 10:40:01+00:00,1585910401,14.303,11684.13,8.57,9.54,,,,,5.19,53.47,,,,,,
2020-04-03 11:00:02+00:00,1585911602,14.092,11185.76,8.22,9.18,,,,,5.31,54.33,,,,,,
2020-04-03 11:20:01+00:00,1585912801,13.943,11230.43,8.29,9.25,,,,,4.77,48.66,,,,,,
2020-04-03 11:40:02+00:00,1585914002,13.663,10779.75,7.98,8.94,,,,,4.94,49.97,,,,,,
2020-04-03 12:00:02+00:00,1585915202,13.343,10639.56,7.94,8.9,,,,,6.17,61.97,,,,,,
2020-04-03 12:20:02+00:00,1585916402,13.23,10852.57,8.13,9.1,,,,,4.57,45.81,,,,,,
2020-04-03 12:40:02+00:00,1585917602,13.141,11107.98,8.36,9.33,,,,,6.56,65.82,,,,,,
2020-04-03 13:00:01+00:00,1585918801,12.896,10970.11,8.3,9.27,,,,,5.75,57.34,,,,,,
2020-04-03 13:20:02+00:00,1585920002,12.829,10728.07,8.12,9.09,,,,,5.72,56.93,,,,,,
2020-04-03 13:40:01+00:00,1585921201,13.216,11376.25,8.56,9.54,,,,,5.08,51.1,,,,,,
2020-04-03 14:00:02+00:00,1585922402,13.835,11688.16,8.67,9.66,,,,,6.19,63.15,,,,,,
2020-04-03 14:20:01+00:00,1585923601,13.165,11651.53,8.8,9.79,,,,,6.07,61.07,,,,,,
2020-04-03 14:40:02+00:00,1585924802,12.974,11813.02,8.97,9.97,,,,,5.65,56.68,,,,,,
2020-04-03 15:00:01+00:00,1585926001,13.606,12113,9.07,10.06,,,,,5.49,55.86,,,,,,
2020-04-03 15:20:02+00:00,1585927202,13.931,12766.37,9.52,10.52,,,,,4.34,44.56,,,,,,
2020-04-03 15:40:02+00:00,1585928402,13.763,12697.7,9.51,10.51,,,,,4.71,48.24,,,,,,
2020-04-03 16:00:01+00:00,1585929601,13.444,14010.05,10.66,11.69,,,,,3.8,38.97,,,,,,
2020-04-03 16:20:02+00:00,1585930802,12.407,12941.65,10.05,11.08,,,,,5.6,55.88,,,,,,
2020-04-03 16:40:01+00:00,1585932001,12.497,12265.75,9.46,10.47,,,,,4.68,46.55,,,,,,
2020-04-03 17:00:02+00:00,1585933202,12.862,13014.8,9.99,11.01,,,,,5.44,54.78,,,,,,
2020-04-03 17:20:01+00:00,1585934401,13.186,13704.16,10.48,11.5,,,,,5.79,58.94,,,,,,
2020-04-03 17:40:02+00:00,1585935602,13.785,13978.92,10.54,11.56,,,,,7.5,77.31,,,,,,
2020-04-03 18:00:01+00:00,1585936801,14.41,14250.82,10.59,11.61,,,,,7.54,78.83,,,,,,
2020-04-03 18:20:02+00:00,1585938002,14.727,13776.79,10.13,11.14,,,,,5.79,60.69,,,,,,
2020-04-03 18:40:01+00:00,1585939201,15.365,14676.4,10.67,11.69,,,,,5.76,61.5,,,,,,
2020-04-03 19:00:02+00:00,1585940402,15.994,13650.5,9.71,10.72,,,,,6.41,68.9,,,,,,
2020-04-03 19:20:02+00:00,1585941602,16.94,19884.61,14.28,15.28,,,,,7.81,87.94,,,,,,
2020-04-03 19:40:01+00:00,1585942801,17.203,15169.55,10.57,11.59,,,,,10.42,115.41,,,,,,
2020-04-03 20:00:02+00:00,1585944002,17.862,15149.76,10.38,11.4,,,,,10.51,117.87,,,,,,
2020-04-03 20:20:01+00:00,1585945201,18.48,16885.57,11.51,12.54,,,,,12.77,145.97,,,,,,
2020-04-03 20:40:02+00:00,1585946402,18.922,15423.75,10.32,11.34,,,,,14.35,164.23,,,,,,
2020-04-03 21:00:01+00:00,1585947601,19.302,13607.3,8.93,9.92,,,,,15.21,173.87,,,,,,
2020-04-03 21:20:02+00:00,1585948802,19.684,12320.54,7.95,8.91,,,,,15.62,178.94,,,,,,
2020-04-03 21:40:01+00:00,1585950001,20.061,12819.06,8.22,9.2,,,,,15.67,181.07,,,,,,
2020-04-03 22:00:02+00:00,1585951202,20.351,11021.72,6.94,7.86,,,,,16.73,193.02,,,,,,
2020-04-03 22:20:01+00:00,1585952401,20.6,10529.18,6.57,7.47,,,,,16.66,192.68,,,,,,
2020-04-03 22:40:02+00:00,1585953602,20.791,9810.33,6.06,6.93,,,,,17.24,199.52,,,,,,
2020-04-03 23:00:02+00:00,1585954802,20.925,9895.47,6.1,6.97,,,,,16.21,188.1,,,,,,
2020-04-03 23:20:02+00:00,1585956002,20.949,9606.18,5.9,6.77,,,,,14.69,170.35,,,,,,
2020-04-03 23:40:02+00:00,1585957202,20.896,9710.46,5.98,6.85,,,,,15.31,177.53,3.977,-0.83169,,,,
2020-04-04 00:00:02+00:00,1585958402,20.955,9532.29,5.85,6.71,,,,,11,127.57,,,,,,
2020-04-04 00:20:02+00:00,1585959602,20.959,9154.19,5.6,6.45,,,,,11.4,131.99,,,,,,
2020-04-04 00:40:02+00:00,1585960802,20.898,9608.07,5.91,6.78,,,,,12.08,140.03,,,,,,
2020-04-04 01:00:01+00:00,1585962001,20.851,9416.13,5.79,6.65,,,,,11.75,135.9,,,,,,
2020-04-04 01:20:02+00:00,1585963202,20.725,9379.5,5.78,6.64,,,,,9.29,107.27,,,,,,
2020-04-04 01:40:01+00:00,1585964401,20.485,11743.5,7.41,8.35,,,,,11.02,127.76,,,,,,
2020-04-04 02:00:02+00:00,1585965602,20.354,12574.99,8,8.97,,,,,11.76,136.47,,,,,,
2020-04-04 02:20:01+00:00,1585966801,20.137,12355.05,7.89,8.85,,,,,12.92,149.26,,,,,,
2020-04-04 02:40:02+00:00,1585968002,19.731,11263.05,7.21,8.14,,,,,11.37,129.77,,,,,,
2020-04-04 03:00:02+00:00,1585969202,19.43,11371.07,7.33,8.27,,,,,11.89,134.98,,,,,,
2020-04-04 03:20:01+00:00,1585970401,19.208,12581.34,8.22,9.2,,,,,10.02,113.84,,,,,,
2020-04-04 03:40:02+00:00,1585971602,18.937,12054.81,7.9,8.86,,,,,10.82,122.07,,,,,,
2020-04-04 04:00:01+00:00,1585972801,18.782,11585.29,7.6,8.55,,,,,12.69,142.46,,,,,,
2020-04-04 04:20:02+00:00,1585974002,18.476,10958.62,7.21,8.14,,,,,11.88,132.26,,,,,,
2020-04-04 04:40:01+00:00,1585975201,18.121,10580.07,7,7.92,,,,,12.64,139.6,,,,,,
2020-04-04 05:00:02+00:00,1585976402,17.996,10413.34,6.9,7.81,,,,,9.81,107.98,,,,,,
2020-04-04 05:20:01+00:00,1585977601,17.769,10856.22,7.26,8.19,,,,,9.45,103.72,,,,,,
2020-04-04 05:40:02+00:00,1585978802,17.852,10930.94,7.3,8.23,,,,,10.6,116.63,,,,,,
2020-04-04 06:00:01+00:00,1585980001,17.439,11167.7,7.54,8.48,,,,,8.6,93.94,,,,,,
2020-04-04 06:20:02+00:00,1585981202,17.438,11518.04,7.8,8.75,,,,,6.2,67.89,,,,,,
2020-04-04 06:40:02+00:00,1585982402,17.22,12333.31,8.44,9.42,,,,,5.21,57.01,,,,,,
2020-04-04 07:00:01+00:00,1585983601,16.678,12516.74,8.69,9.67,,,,,9.25,100.16,,,,,,
2020-04-04 07:20:02+00:00,1585984802,16.402,12872.97,9.02,10.01,,,,,8.8,95.02,,,,,,
2020-04-04 07:40:01+00:00,1585986001,16.177,12486.13,8.78,9.76,,,,,7.65,82.02,,,,,,
2020-04-04 08:00:02+00:00,1585987202,15.868,12046.46,8.51,9.48,,,,,6.96,74.09,,,,,,
2020-04-04 08:20:01+00:00,1585988401,15.745,13175.91,9.41,10.4,,,,,5.76,61.46,,,,,,
2020-04-04 08:40:02+00:00,1585989602,15.602,13300.15,9.54,10.54,,,,,5.17,55.09,,,,,,
2020-04-04 09:00:01+00:00,1585990801,15.438,13654.73,9.85,10.86,,,,,6.05,64.35,,,,,,
2020-04-04 09:20:02+00:00,1585992002,15.359,12805.45,9.21,10.2,,,,,8.38,88.56,,,,,,
2020-04-04 09:40:02+00:00,1585993202,15.21,12475.74,8.99,9.97,,,,,5.78,60.86,,,,,,
2020-04-04 10:00:01+00:00,1585994401,15.12,12213.43,8.8,9.79,,,,,5.94,62.32,,,,,,
2020-04-04 10:20:02+00:00,1585995602,14.921,11970.63,8.66,9.64,,,,,4.33,45.24,,,,,,
2020-04-04 10:40:01+00:00,1585996801,14.797,12937.52,9.45,10.44,,,,,3.54,37.03,,,,,,
2020-04-04 11:00:02+00:00,1585998002,14.644,12726.26,9.31,10.31,,,,,2.67,27.85,,,,,,
2020-04-04 11:20:02+00:00,1585999202,14.556,13585.37,10.02,11.03,,,,,2.28,23.82,,,,,,
2020-04-04 11:40:02+00:00,1586000402,14.325,13619.39,10.11,11.12,,,,,2.18,22.69,,,,,,
2020-04-04 12:00:02+00:00,1586001602,14.198,13899,10.36,11.38,,,,,1.53,15.95,,,,,,
2020-04-04 12:20:02+00:00,1586002802,14.046,13493.7,10.08,11.09,,,,,1.62,16.78,,,,,,
2020-04-04 12:40:02+00:00,1586004002,13.657,12725.15,9.55,10.56,,,,,2.61,26.72,,,,,,
2020-04-04 13:00:01+00:00,1586005201,13.284,12500,9.46,10.47,,,,,4.02,40.68,,,,,,
2020-04-04 13:20:02+00:00,1586006402,13.251,11664.85,8.79,9.78,,,,,6.35,64.03,,,,,,
2020-04-04 13:40:01+00:00,1586007601,13.265,12211.24,9.23,10.23,,,,,6.06,61.27,,,,,,
2020-04-04 14:00:02+00:00,1586008802,13.381,12067.16,9.09,10.08,,,,,6.15,62.26,,,,,,
2020-04-04 14:20:01+00:00,1586010001,13.509,12670.84,9.55,10.55,,,,,3.61,36.72,,,,,,
2020-04-04 14:40:02+00:00,1586011202,13.592,14146.61,10.73,11.76,,,,,3.7,38.07,,,,,,
2020-04-04 15:00:01+00:00,1586012401,13.823,14924.45,11.31,12.33,,,,,3.59,37.17,,,,,,
2020-04-04 15:20:02+00:00,1586013602,13.673,14699.34,11.16,12.19,,,,,3.54,36.51,,,,,,
2020-04-04 15:40:02+00:00,1586014802,13.627,15778.57,12.07,13.1,,,,,5.09,52.79,,,,,,
2020-04-04 16:00:02+00:00,1586016002,13.995,16884.81,12.87,13.9,,,,,2.87,30.17,,,,,,
2020-04-04 16:20:02+00:00,1586017202,14.071,16033.71,12.14,13.17,,,,,4.39,46,,,,,,
2020-04-04 16:40:01+00:00,1586018401,13.992,17667.43,13.52,14.54,,,,,3.32,34.96,,,,,,
2020-04-04 17:00:02+00:00,1586019602,13.852,17003.03,13.02,14.04,,,,,3.84,40.28,5.226,-0.81419,,,,
2020-04-04 17:20:02+00:00,1586020802,14.015,15940.7,12.08,13.11,,,,,4.61,48.18,,,,,,
2020-04-04 17:40:01+00:00,1586022001,14.35,16793.44,12.68,13.7,,,,,2.83,29.87,,,,,,
2020-04-04 18:00:02+00:00,1586023202,14.104,17821.88,13.61,14.63,,,,,4.62,48.91,,,,,,
2020-04-04 18:20:01+00:00,1586024401,14.293,16688.32,12.61,13.64,,,,,3.96,41.85,,,,,,
2020-04-04 18:40:02+00:00,1586025602,14.436,16048.08,12.04,13.07,,,,,4.52,47.64,,,,,,
2020-04-04 19:00:02+00:00,1586026802,15.249,14354.77,10.45,11.47,,,,,6.74,71.58,,,,,,
2020-04-04 19:20:02+00:00,1586028002,15.66,15181.1,10.99,12.01,,,,,4.16,44.77,,,,,,
2020-04-04 19:40:02+00:00,1586029202,16.159,17360.42,12.55,13.58,,,,,3.72,40.76,,,,,,
2020-04-04 20:00:02+00:00,1586030402,16.502,19679.8,14.27,15.27,,,,,4.11,45.85,,,,,,
2020-04-04 20:20:02+00:00,1586031602,16.831,19302.05,13.86,14.87,,,,,7.93,88.9,4.471,-0.82477,,,,
2020-04-04 20:40:02+00:00,1586032802,17.229,19292.98,13.72,14.73,,,,,10.17,114.9,,,,,,